Racine, WI

3:35 AM CDT on June 28, 2017 (GMT -0500)
Batten

Weather History for KRAC - March, 2014

Change the Weather History Date:

Friday, March 28, 2014

  Actual Average Record
Temperature  
Mean Temperature 41 °F -  
Max Temperature 50 °F 46 °F 76 °F (1968)
Min Temperature 32 °F 31 °F 7 °F (1970)
Degree Days  
Heating Degree Days 24    
Moisture  
Dew Point 35 °F    
Average Humidity 85    
Maximum Humidity 97    
Minimum Humidity 70    
Precipitation  
Precipitation 0.26 in - - ()
Sea Level Pressure  
Sea Level Pressure 29.81 in    
Wind  
Wind Speed 12 mph (NNW)    
Max Wind Speed 17 mph    
Max Gust Speed 29 mph    
Visibility 8 miles    
Events Rain , Snow    
Averages and records for this station are not official NWS values.
T = Trace of Precipitation, MM = Missing Value Source: NWS Daily Summary

Daily Weather History Graph

Daily Weather History Graph

Search for Another Location

Airport or City:

Trip Planner

Search our weather history database for the weather conditions in past years. The results will help you decide how hot, cold, wet, or windy it might be!

Date:

Astronomy

Mar. 28, 2014 Rise Set
Actual Time 6:40 AM CDT 7:12 PM CDT
Civil Twilight 6:12 AM CDT 7:41 PM CDT
Nautical Twilight 5:38 AM CDT 8:14 PM CDT
Astronomical Twilight 5:04 AM CDT 8:49 PM CDT
Moon 5:14 AM CDT 5:06 PM CDT
Length of Visible Light 13h 29m
Length of Day
12h 32m
Waning Crescent, 6% of the Moon is Illuminated
Mar 28
Waning Crescent
Mar 30
New
Apr 7
First Quarter
Apr 15
Full
Apr 22
Last Quarter

Hourly Weather History & Observations

Time (CDT) Temp. Windchill Dew Point Humidity Pressure Visibility Wind Dir Wind Speed Gust Speed Precip Events Conditions
12:02 AM 48.9 °F - 46.9 °F 93% 29.44 in 2.5 mi SW 16.1 mph - 0.05 in Rain Rain
12:12 AM 48.9 °F - 46.0 °F 90% 29.43 in 7.0 mi SW 9.2 mph 21.9 mph 0.06 in Rain Light Rain
12:20 AM 48.9 °F - 46.0 °F 90% 29.43 in 9.0 mi SSW 6.9 mph - 0.07 in Rain Light Rain
12:53 AM 50.0 °F - 46.9 °F 89% 29.42 in 7.0 mi SSW 11.5 mph - 0.08 in Rain Light Rain
1:26 AM 50.0 °F - 48.0 °F 93% 29.42 in 3.0 mi SSW 11.5 mph - 0.02 in Rain Light Rain
1:53 AM 50.0 °F - 48.0 °F 93% 29.42 in 7.0 mi SSW 10.4 mph - 0.03 in   Overcast
2:33 AM 50.0 °F - 48.0 °F 93% 29.42 in 5.0 mi SW 15.0 mph 25.3 mph 0.01 in Rain Light Rain
2:53 AM 46.9 °F - 44.1 °F 90% 29.44 in 4.0 mi SW 17.3 mph 28.8 mph 0.01 in Rain Light Rain
3:10 AM 45.0 °F 37.9 °F 43.0 °F 93% 29.44 in 5.0 mi SW 16.1 mph 28.8 mph 0.00 in   Overcast
3:53 AM 43.0 °F 36.0 °F 41.0 °F 93% 29.51 in 3.0 mi North 13.8 mph - 0.01 in Rain Light Rain
4:09 AM 41.0 °F 33.1 °F 39.0 °F 93% 29.51 in 2.5 mi North 15.0 mph 24.2 mph 0.01 in Rain Light Rain
4:17 AM 39.9 °F 33.9 °F 39.0 °F 97% 29.52 in 4.0 mi North 9.2 mph - 0.01 in Rain Light Rain
4:53 AM 39.0 °F 29.9 °F 37.0 °F 93% 29.57 in 6.0 mi NNW 17.3 mph 23.0 mph 0.07 in Rain Light Rain
5:13 AM 37.9 °F 30.5 °F 36.0 °F 93% 29.59 in 10.0 mi NW 11.5 mph 19.6 mph 0.01 in Rain Light Rain
5:31 AM 36.0 °F 26.7 °F 34.0 °F 93% 29.62 in 6.0 mi NW 15.0 mph - 0.02 in Rain Light Rain
5:53 AM 34.0 °F 26.6 °F 32.0 °F 92% 29.66 in 3.0 mi NW 9.2 mph - 0.04 in Snow Light Snow
6:33 AM 35.1 °F 27.4 °F 32.0 °F 89% 29.69 in 9.0 mi NW 10.4 mph - 0.02 in   Overcast
6:48 AM 35.6 °F 28.0 °F 32.0 °F 87% 29.72 in 10.0 mi NW 10.4 mph 18.4 mph 0.02 in Rain Light Rain
6:53 AM 35.1 °F 27.4 °F 32.0 °F 89% 29.75 in 10.0 mi NW 10.4 mph - 0.02 in Rain Light Rain
7:53 AM 36.0 °F 27.5 °F 33.1 °F 89% 29.83 in 10.0 mi NW 12.7 mph 19.6 mph 0.00 in   Overcast
8:23 AM 36.0 °F 26.7 °F 32.0 °F 86% 29.84 in 10.0 mi NNW 15.0 mph 25.3 mph N/A   Overcast
8:53 AM 36.0 °F 27.1 °F 30.9 °F 82% 29.89 in 10.0 mi NNW 13.8 mph - N/A   Overcast
9:53 AM 36.0 °F 28.0 °F 30.0 °F 79% 29.94 in 10.0 mi NNW 11.5 mph 20.7 mph N/A   Overcast
10:53 AM 37.0 °F 28.9 °F 28.9 °F 73% 29.98 in 10.0 mi NW 12.7 mph - N/A   Overcast
11:53 AM 37.9 °F 30.5 °F 28.9 °F 70% 30.01 in 10.0 mi NNW 11.5 mph - N/A   Overcast
12:53 PM 39.0 °F 31.4 °F 30.0 °F 70% 30.03 in 10.0 mi NNE 12.7 mph - N/A   Overcast
1:53 PM 39.0 °F 32.8 °F 30.0 °F 70% 30.06 in 10.0 mi NE 9.2 mph - N/A   Overcast
2:53 PM 37.0 °F 32.4 °F 28.0 °F 70% 30.12 in 10.0 mi ENE 5.8 mph - N/A   Overcast
3:53 PM 36.0 °F 30.3 °F 28.0 °F 73% 30.16 in 10.0 mi East 6.9 mph - N/A   Overcast
4:53 PM 36.0 °F 31.1 °F 28.9 °F 76% 30.17 in 10.0 mi East 5.8 mph - N/A   Overcast
5:53 PM 34.0 °F 28.0 °F 28.0 °F 79% 30.18 in 9.0 mi East 6.9 mph - N/A   Overcast
6:53 PM 34.0 °F 28.0 °F 28.0 °F 79% 30.19 in 9.0 mi East 6.9 mph - N/A   Overcast
7:53 PM 34.0 °F 28.8 °F 28.9 °F 82% 30.24 in 10.0 mi SE 5.8 mph - N/A   Overcast
8:53 PM 33.1 °F 27.7 °F 28.0 °F 82% 30.22 in 10.0 mi ENE 5.8 mph - N/A   Overcast
9:53 PM 32.0 °F 24.8 °F 27.0 °F 82% 30.19 in 10.0 mi NNE 8.1 mph - N/A   Overcast
10:31 PM 32.0 °F 26.4 °F 27.0 °F 82% 30.18 in 10.0 mi North 5.8 mph - N/A   Scattered Clouds
10:53 PM 32.0 °F 25.6 °F 27.0 °F 82% 30.21 in 10.0 mi NNE 6.9 mph - N/A   Clear
11:53 PM 32.0 °F 24.8 °F 27.0 °F 82% 30.22 in 10.0 mi East 8.1 mph - N/A   Clear